Location: *
(60.1759°S, 155.0663°W)
Time: 09:19:05
(UTC+00:00)

NOSS 3-4 (A) - Pass Details

Date: 17 September 2019
Orbit: 910 x 1303 km, 63.4° (Epoch: 21 September)

Event Time Altitude Azimuth Distance (km) Brightness Sun altitude
Exits shadow 12:22:32 53° 296° (WNW) 1,497 4.0 -27.1°
Maximum altitude 12:24:41 89° 206° (SSW) 1,235 3.9 -27.0°
Drops below altitude 10° 12:32:07 10° 115° (ESE) 3,053 6.9 -26.4°
Sets 12:34:42 0° 115° (ESE) 3,958 7.7 -26.2°
